• In Belgium
  • List of Countries
  • For 7 days
  • Water Temperature
  • Satellite Maps
  • Weather Map
  • Weather Widgets
  • user-avatar
    Login

    Hourly Weather Yulara

    Today, 24 June, Saturday

    Time Temperature Precipitation Wind Pressure Humidity
    00:00 +19°C° 0 mm 2 mps 719 mmHg 33%
    01:00 +18°C° 0 mm 2 mps 719 mmHg 35%
    02:00 +17°C° 0 mm 3 mps 719 mmHg 37%
    03:00 +17°C° 0 mm 3 mps 719 mmHg 38%
    04:00 +16°C° 0 mm 3 mps 719 mmHg 41%
    05:00 +14°C° 0 mm 3 mps 719 mmHg 44%
    06:00 +14°C° 0 mm 4 mps 719 mmHg 46%
    07:00 +15°C° 0 mm 4 mps 719 mmHg 45%
    08:00 +17°C° 0 mm 4 mps 719 mmHg 44%
    09:00 +17°C° 0 mm 4 mps 720 mmHg 43%
    10:00 +19°C° 0 mm 4 mps 720 mmHg 38%
    11:00 +21°C° 0 mm 4 mps 719 mmHg 33%
    12:00 +23°C° 0 mm 4 mps 719 mmHg 29%
    13:00 +25°C° 0 mm 4 mps 719 mmHg 27%
    14:00 +25°C° 0 mm 3 mps 719 mmHg 25%
    15:00 +26°C° 0 mm 3 mps 718 mmHg 24%
    16:00 +25°C° 0 mm 3 mps 718 mmHg 26%
    17:00 +22°C° 0 mm 3 mps 718 mmHg 28%
    18:00 +21°C° 0 mm 4 mps 718 mmHg 31%
    19:00 +20°C° 0 mm 4 mps 718 mmHg 33%
    20:00 +19°C° 0 mm 4 mps 719 mmHg 35%
    21:00 +19°C° 0 mm 4 mps 719 mmHg 37%
    22:00 +18°C° 0 mm 4 mps 719 mmHg 39%
    23:00 +17°C° 0 mm 4 mps 719 mmHg 41%

    Tomorrow, 25 June, Sunday

    Time Temperature Precipitation Wind Pressure Humidity
    00:00 +16°C° 0 mm 5 mps 719 mmHg 43%
    01:00 +15°C° 0 mm 5 mps 719 mmHg 43%
    02:00 +15°C° 0 mm 5 mps 719 mmHg 44%
    03:00 +15°C° 0 mm 5 mps 719 mmHg 44%
    04:00 +15°C° 0 mm 5 mps 719 mmHg 44%
    05:00 +14°C° 0 mm 4 mps 719 mmHg 45%
    06:00 +14°C° 0 mm 4 mps 719 mmHg 45%
    07:00 +15°C° 0 mm 4 mps 720 mmHg 43%
    08:00 +15°C° 0 mm 4 mps 720 mmHg 41%
    09:00 +16°C° 0 mm 5 mps 721 mmHg 40%
    10:00 +17°C° 0 mm 5 mps 721 mmHg 37%
    11:00 +19°C° 0 mm 4 mps 720 mmHg 35%
    12:00 +20°C° 0 mm 4 mps 720 mmHg 32%
    13:00 +20°C° 0 mm 5 mps 720 mmHg 31%
    14:00 +21°C° 0 mm 5 mps 719 mmHg 31%
    15:00 +21°C° 0 mm 5 mps 719 mmHg 30%
    16:00 +21°C° 0 mm 5 mps 719 mmHg 31%
    17:00 +20°C° 0 mm 5 mps 719 mmHg 33%
    18:00 +19°C° 0 mm 4 mps 719 mmHg 34%
    19:00 +19°C° 0 mm 5 mps 720 mmHg 35%
    20:00 +19°C° 0 mm 5 mps 720 mmHg 36%
    21:00 +19°C° 0 mm 6 mps 720 mmHg 37%
    22:00 +17°C° 0 mm 6 mps 720 mmHg 39%
    23:00 +17°C° 0 mm 6 mps 720 mmHg 42%

    Day after tomorrow, 26 June, Monday

    Time Temperature Precipitation Wind Pressure Humidity
    00:00 +17°C° 0 mm 6 mps 720 mmHg 44%
    01:00 +16°C° 0.1 mm 6 mps 720 mmHg 47%
    02:00 +15°C° 0.1 mm 6 mps 720 mmHg 50%
    03:00 +15°C° 0.1 mm 6 mps 720 mmHg 52%
    04:00 +15°C° 0 mm 6 mps 720 mmHg 55%
    05:00 +14°C° 0 mm 6 mps 720 mmHg 57%
    06:00 +14°C° 0 mm 6 mps 720 mmHg 59%
    07:00 +14°C° 0 mm 7 mps 721 mmHg 58%
    08:00 +15°C° 0 mm 7 mps 721 mmHg 57%
    09:00 +15°C° 0 mm 8 mps 721 mmHg 56%
    10:00 +17°C° 0 mm 8 mps 721 mmHg 50%
    11:00 +18°C° 0 mm 8 mps 721 mmHg 44%
    12:00 +20°C° 0 mm 8 mps 721 mmHg 37%
    13:00 +20°C° 0.2 mm 7 mps 721 mmHg 38%
    14:00 +20°C° 0.2 mm 6 mps 720 mmHg 39%
    15:00 +20°C° 0.2 mm 5 mps 720 mmHg 40%
    16:00 +19°C° 0.2 mm 5 mps 720 mmHg 45%
    17:00 +17°C° 0.2 mm 6 mps 720 mmHg 50%
    18:00 +16°C° 0.2 mm 6 mps 720 mmHg 55%
    19:00 +16°C° 0.3 mm 6 mps 720 mmHg 57%
    20:00 +16°C° 0.3 mm 6 mps 721 mmHg 60%
    21:00 +15°C° 0.3 mm 6 mps 721 mmHg 62%
    22:00 +15°C° 0.4 mm 6 mps 721 mmHg 64%
    23:00 +15°C° 0.4 mm 7 mps 721 mmHg 66%

    27 June, Tuesday

    Time Temperature Precipitation Wind Pressure Humidity
    00:00 +14°C° 0.4 mm 7 mps 721 mmHg 68%
    01:00 +14°C° 0.1 mm 6 mps 720 mmHg 68%
    02:00 +14°C° 0.1 mm 6 mps 720 mmHg 69%
    03:00 +13°C° 0.1 mm 6 mps 720 mmHg 69%
    04:00 +13°C° 0.3 mm 6 mps 720 mmHg 70%
    05:00 +13°C° 0.3 mm 6 mps 720 mmHg 70%
    06:00 +13°C° 0.3 mm 6 mps 720 mmHg 71%
    07:00 +13°C° 0.8 mm 6 mps 720 mmHg 72%
    08:00 +13°C° 0.8 mm 5 mps 721 mmHg 74%
    09:00 +13°C° 0.8 mm 4 mps 721 mmHg 75%
    10:00 +13°C° 0.7 mm 4 mps 721 mmHg 74%
    11:00 +13°C° 0.7 mm 5 mps 720 mmHg 74%
    12:00 +14°C° 0.7 mm 5 mps 720 mmHg 73%
    13:00 +14°C° 0.7 mm 5 mps 720 mmHg 74%
    14:00 +14°C° 0.7 mm 5 mps 719 mmHg 75%
    15:00 +14°C° 0.7 mm 4 mps 719 mmHg 75%
    16:00 +13°C° 0 mm 4 mps 719 mmHg 77%
    17:00 +13°C° 0 mm 4 mps 720 mmHg 78%
    18:00 +13°C° 0 mm 4 mps 720 mmHg 80%
    19:00 +13°C° 0 mm 4 mps 721 mmHg 81%
    20:00 +12°C° 0 mm 3 mps 721 mmHg 83%
    21:00 +12°C° 0 mm 3 mps 722 mmHg 85%
    22:00 +12°C° 0 mm 3 mps 721 mmHg 87%
    23:00 +11°C° 0 mm 3 mps 721 mmHg 88%

    28 June, Wednesday

    Time Temperature Precipitation Wind Pressure Humidity
    00:00 +11°C° 0 mm 3 mps 721 mmHg 90%
    01:00 +11°C° 0 mm 4 mps 721 mmHg 89%
    02:00 +11°C° 0 mm 4 mps 721 mmHg 89%
    03:00 +10°C° 0 mm 5 mps 721 mmHg 89%
    04:00 +10°C° 0 mm 5 mps 722 mmHg 89%
    05:00 +9°C° 0 mm 5 mps 722 mmHg 89%
    06:00 +9°C° 0 mm 5 mps 722 mmHg 88%
    07:00 +10°C° 0 mm 6 mps 723 mmHg 83%
    08:00 +11°C° 0 mm 7 mps 723 mmHg 78%
    09:00 +11°C° 0 mm 7 mps 724 mmHg 73%
    10:00 +12°C° 0 mm 8 mps 724 mmHg 68%
    11:00 +13°C° 0 mm 8 mps 724 mmHg 63%
    12:00 +15°C° 0 mm 8 mps 724 mmHg 58%
    13:00 +15°C° 0 mm 8 mps 723 mmHg 55%
    14:00 +15°C° 0 mm 8 mps 723 mmHg 51%
    15:00 +15°C° 0 mm 8 mps 723 mmHg 47%
    16:00 +14°C° 0 mm 7 mps 723 mmHg 51%
    17:00 +12°C° 0 mm 7 mps 724 mmHg 54%
    18:00 +11°C° 0 mm 6 mps 724 mmHg 57%
    19:00 +11°C° 0 mm 6 mps 724 mmHg 60%
    20:00 +10°C° 0 mm 6 mps 725 mmHg 63%
    21:00 +9°C° 0 mm 6 mps 725 mmHg 66%
    22:00 +9°C° 0 mm 7 mps 725 mmHg 66%
    23:00 +8°C° 0 mm 7 mps 726 mmHg 65%

    29 June, Thursday

    Time Temperature Precipitation Wind Pressure Humidity
    00:00 +8°C° 0 mm 7 mps 726 mmHg 64%
    01:00 +6°C° 0 mm 7 mps 726 mmHg 64%
    02:00 +5°C° 0 mm 6 mps 725 mmHg 64%
    03:00 +5°C° 0 mm 6 mps 725 mmHg 64%
    04:00 +5°C° 0 mm 6 mps 726 mmHg 67%
    05:00 +4°C° 0 mm 6 mps 726 mmHg 71%
    06:00 +4°C° 0 mm 6 mps 726 mmHg 74%
    07:00 +5°C° 0 mm 6 mps 726 mmHg 72%
    08:00 +6°C° 0 mm 7 mps 727 mmHg 70%
    09:00 +6°C° 0 mm 8 mps 727 mmHg 69%
    10:00 +7°C° 0 mm 8 mps 727 mmHg 63%
    11:00 +10°C° 0 mm 8 mps 726 mmHg 58%
    12:00 +11°C° 0 mm 8 mps 726 mmHg 52%
    13:00 +12°C° 0 mm 8 mps 726 mmHg 49%
    14:00 +12°C° 0 mm 8 mps 725 mmHg 46%
    15:00 +13°C° 0 mm 8 mps 725 mmHg 43%
    16:00 +12°C° 0 mm 7 mps 725 mmHg 49%
    17:00 +11°C° 0 mm 7 mps 725 mmHg 54%
    18:00 +10°C° 0 mm 6 mps 725 mmHg 59%
    19:00 +10°C° 0 mm 6 mps 725 mmHg 63%
    20:00 +9°C° 0 mm 6 mps 726 mmHg 67%
    21:00 +8°C° 0 mm 6 mps 726 mmHg 71%
    22:00 +8°C° 0 mm 6 mps 726 mmHg 72%
    23:00 +8°C° 0 mm 6 mps 725 mmHg 74%
    Show more